Time,TemperatureF,DewpointF,PressureIn,WindDirection,WindDirectionDegrees,WindSpeedMPH,WindSpeedGustMPH,Humidity,HourlyPrecipIn,Conditions,Clouds,dailyrainin,SoftwareType,DateUTC
2013-09-22 00:01:00,64.0,58.4,29.86,SE,144,3.0,3.0,82,0.00,BKN,BKN,0.00,WeatherDisplay:10.34,2013-09-22 04:01:00,
2013-09-22 00:03:00,63.9,58.3,29.86,SSW,198,4.0,7.0,82,0.00,SCT,SCT,0.00,WeatherDisplay:10.34,2013-09-22 04:03:00,
2013-09-22 00:05:00,64.0,58.4,29.86,SSW,200,5.0,7.0,82,0.00,SCT,SCT,0.00,WeatherDisplay:10.34,2013-09-22 04:05:00,
2013-09-22 00:07:00,63.9,58.6,29.86,WNW,297,3.0,6.0,83,0.00,SCT,SCT,0.00,WeatherDisplay:10.34,2013-09-22 04:07:00,
2013-09-22 00:12:00,63.9,58.6,29.86,South,189,4.0,7.0,83,0.00,SCT,SCT,0.00,WeatherDisplay:10.34,2013-09-22 04:12:00,
2013-09-22 00:14:00,63.9,58.6,29.86,SSW,204,4.0,8.0,83,0.00,SCT,SCT,0.00,WeatherDisplay:10.34,2013-09-22 04:14:00,
2013-09-22 00:19:00,64.0,58.8,29.86,SSW,211,7.0,12.0,83,0.00,SCT,SCT,0.00,WeatherDisplay:10.34,2013-09-22 04:19:00,
2013-09-22 00:24:00,64.0,59.1,29.86,West,262,3.0,6.0,84,0.00,SCT,SCT,0.00,WeatherDisplay:10.34,2013-09-22 04:24:00,
2013-09-22 00:29:00,63.9,58.6,29.86,WNW,293,5.0,7.0,83,0.00,SCT,SCT,0.00,WeatherDisplay:10.34,2013-09-22 04:29:00,
2013-09-22 00:34:00,63.9,58.9,29.85,South,191,4.0,7.0,84,0.00,SCT,SCT,0.00,WeatherDisplay:10.34,2013-09-22 04:34:00,
2013-09-22 00:39:00,63.9,59.3,29.85,South,182,6.0,9.0,85,0.00,SCT,SCT,0.00,WeatherDisplay:10.34,2013-09-22 04:39:00,
2013-09-22 00:44:00,64.0,59.4,29.85,East,92,4.0,6.0,85,0.00,SCT,SCT,0.00,WeatherDisplay:10.34,2013-09-22 04:44:00,
2013-09-22 00:49:00,64.0,59.4,29.85,SW,219,3.0,8.0,85,0.00,SCT,SCT,0.00,WeatherDisplay:10.34,2013-09-22 04:49:00,
2013-09-22 00:54:00,64.0,59.4,29.85,WNW,282,4.0,6.0,85,0.00,SCT,SCT,0.00,WeatherDisplay:10.34,2013-09-22 04:54:00,
2013-09-22 00:59:00,64.0,59.4,29.82,SE,142,4.0,7.0,85,0.00,SCT,SCT,0.00,WeatherDisplay:10.34,2013-09-22 04:59:00,
2013-09-22 01:04:00,64.0,59.4,29.82,West,277,4.0,12.0,85,0.00,FEW,FEW,0.00,WeatherDisplay:10.34,2013-09-22 05:04:00,
2013-09-22 01:09:00,64.0,59.4,29.82,SSW,192,4.0,7.0,85,0.00,FEW,FEW,0.00,WeatherDisplay:10.34,2013-09-22 05:09:00,
2013-09-22 01:14:00,64.0,59.4,29.82,SW,217,5.0,6.0,85,0.00,FEW,FEW,0.00,WeatherDisplay:10.34,2013-09-22 05:14:00,
2013-09-22 01:19:00,64.0,59.4,29.82,South,181,0.0,5.0,85,0.00,FEW,FEW,0.00,WeatherDisplay:10.34,2013-09-22 05:19:00,
2013-09-22 01:24:00,64.2,59.6,29.82,SSW,193,3.0,5.0,85,0.00,FEW,FEW,0.00,WeatherDisplay:10.34,2013-09-22 05:24:00,
2013-09-22 01:29:00,64.2,59.6,29.82,South,187,4.0,6.0,85,0.00,FEW,FEW,0.00,WeatherDisplay:10.34,2013-09-22 05:29:00,
2013-09-22 01:34:00,64.2,59.9,29.82,WSW,239,3.0,6.0,86,0.00,FEW,FEW,0.00,WeatherDisplay:10.34,2013-09-22 05:34:00,
2013-09-22 01:39:00,64.4,60.1,29.82,SE,140,0.0,5.0,86,0.00,FEW,FEW,0.00,WeatherDisplay:10.34,2013-09-22 05:39:00,
2013-09-22 01:44:00,64.4,59.8,29.82,ESE,106,0.0,3.0,85,0.00,FEW,FEW,0.00,WeatherDisplay:10.34,2013-09-22 05:44:00,
2013-09-22 01:49:00,64.4,59.8,29.82,SE,133,0.0,5.0,85,0.00,FEW,FEW,0.00,WeatherDisplay:10.34,2013-09-22 05:49:00,
2013-09-22 01:54:00,64.4,59.8,29.82,SW,232,5.0,9.0,85,0.00,FEW,FEW,0.00,WeatherDisplay:10.34,2013-09-22 05:54:00,
2013-09-22 01:59:00,64.4,59.8,29.79,NNE,22,5.0,8.0,85,0.00,FEW,FEW,0.00,WeatherDisplay:10.34,2013-09-22 05:59:00,
2013-09-22 02:04:00,64.4,59.8,29.79,SE,127,0.0,5.0,85,0.00,BKN,BKN,0.00,WeatherDisplay:10.34,2013-09-22 06:04:00,
2013-09-22 02:09:00,64.4,59.8,29.79,WSW,250,3.0,3.0,85,0.00,BKN,BKN,0.00,WeatherDisplay:10.34,2013-09-22 06:09:00,
2013-09-22 02:14:00,64.4,59.8,29.79,WSW,242,3.0,6.0,85,0.00,BKN,BKN,0.00,WeatherDisplay:10.34,2013-09-22 06:14:00,
2013-09-22 02:19:00,64.4,59.8,29.79,South,188,3.0,5.0,85,0.00,BKN,BKN,0.00,WeatherDisplay:10.34,2013-09-22 06:19:00,
2013-09-22 02:24:00,64.4,59.8,29.79,NNE,31,3.0,3.0,85,0.00,BKN,BKN,0.00,WeatherDisplay:10.34,2013-09-22 06:24:00,
2013-09-22 02:29:00,64.4,59.8,29.79,SSW,198,3.0,6.0,85,0.00,BKN,BKN,0.00,WeatherDisplay:10.34,2013-09-22 06:29:00,
2013-09-22 02:34:00,64.4,59.8,29.79,West,268,3.0,7.0,85,0.00,BKN,BKN,0.00,WeatherDisplay:10.34,2013-09-22 06:34:00,
2013-09-22 02:39:00,64.4,60.1,29.79,West,268,3.0,3.0,86,0.00,BKN,BKN,0.00,WeatherDisplay:10.34,2013-09-22 06:39:00,
2013-09-22 02:44:00,64.4,60.1,29.79,SSW,195,3.0,9.0,86,0.00,BKN,BKN,0.00,WeatherDisplay:10.34,2013-09-22 06:44:00,
2013-09-22 02:49:00,64.4,60.1,29.76,WSW,243,0.0,5.0,86,0.00,BKN,BKN,0.00,WeatherDisplay:10.34,2013-09-22 06:49:00,
2013-09-22 02:54:00,64.4,60.1,29.76,WSW,252,3.0,3.0,86,0.00,BKN,BKN,0.00,WeatherDisplay:10.34,2013-09-22 06:54:00,
2013-09-22 02:59:00,64.4,60.1,29.76,South,186,0.0,2.0,86,0.00,BKN,BKN,0.00,WeatherDisplay:10.34,2013-09-22 06:59:00,
2013-09-22 03:04:00,64.4,60.1,29.76,SW,215,5.0,6.0,86,0.00,BKN,BKN,0.00,WeatherDisplay:10.34,2013-09-22 07:04:00,
2013-09-22 03:09:00,64.6,60.6,29.76,West,260,3.0,6.0,87,0.00,BKN,BKN,0.00,WeatherDisplay:10.34,2013-09-22 07:09:00,
2013-09-22 03:14:00,64.8,60.8,29.76,SSW,211,3.0,6.0,87,0.00,BKN,BKN,0.00,WeatherDisplay:10.34,2013-09-22 07:14:00,
2013-09-22 03:19:00,64.8,61.1,29.76,West,278,7.0,9.0,88,0.00,BKN,BKN,0.00,WeatherDisplay:10.34,2013-09-22 07:19:00,
2013-09-22 03:24:00,64.8,60.8,29.76,South,178,3.0,3.0,87,0.00,BKN,BKN,0.00,WeatherDisplay:10.34,2013-09-22 07:24:00,
2013-09-22 03:29:00,64.8,61.1,29.76,South,187,4.0,9.0,88,0.00,BKN,BKN,0.00,WeatherDisplay:10.34,2013-09-22 07:29:00,
2013-09-22 03:34:00,64.8,61.1,29.76,South,172,4.0,8.0,88,0.00,BKN,BKN,0.00,WeatherDisplay:10.34,2013-09-22 07:34:00,
2013-09-22 03:39:00,64.8,61.1,29.76,SSW,200,4.0,7.0,88,0.00,BKN,BKN,0.00,WeatherDisplay:10.34,2013-09-22 07:39:00,
2013-09-22 03:44:00,64.8,61.4,29.76,SSW,192,3.0,5.0,89,0.00,BKN,BKN,0.00,WeatherDisplay:10.34,2013-09-22 07:44:00,
2013-09-22 03:49:00,64.8,61.4,29.76,WNW,284,4.0,4.0,89,0.00,BKN,BKN,0.00,WeatherDisplay:10.34,2013-09-22 07:49:00,
2013-09-22 03:54:00,64.8,61.4,29.76,WSW,246,5.0,8.0,89,0.00,BKN,BKN,0.00,WeatherDisplay:10.34,2013-09-22 07:54:00,
2013-09-22 03:59:00,64.8,61.4,29.76,West,264,8.0,8.0,89,0.00,BKN,BKN,0.00,WeatherDisplay:10.34,2013-09-22 07:59:00,
2013-09-22 04:04:00,64.8,61.4,29.73,SW,229,7.0,10.0,89,0.00,OVC,OVC,0.00,WeatherDisplay:10.34,2013-09-22 08:04:00,
2013-09-22 04:09:00,64.9,61.6,29.73,SSW,197,3.0,6.0,89,0.00,OVC,OVC,0.00,WeatherDisplay:10.34,2013-09-22 08:09:00,
2013-09-22 04:14:00,64.9,61.6,29.73,WSW,250,5.0,9.0,89,0.00,OVC,OVC,0.00,WeatherDisplay:10.34,2013-09-22 08:14:00,
2013-09-22 04:19:00,64.9,61.6,29.73,ENE,64,3.0,6.0,89,0.00,OVC,OVC,0.00,WeatherDisplay:10.34,2013-09-22 08:19:00,
2013-09-22 04:24:00,64.9,61.6,29.73,SE,124,5.0,7.0,89,0.00,OVC,OVC,0.00,WeatherDisplay:10.34,2013-09-22 08:24:00,
2013-09-22 04:29:00,65.1,61.8,29.73,SSW,201,4.0,9.0,89,0.00,OVC,OVC,0.00,WeatherDisplay:10.34,2013-09-22 08:29:00,
2013-09-22 04:34:00,64.9,61.9,29.73,NNE,31,4.0,6.0,90,0.00,OVC,OVC,0.00,WeatherDisplay:10.34,2013-09-22 08:34:00,
2013-09-22 04:39:00,64.9,61.9,29.73,SW,227,4.0,6.0,90,0.00,OVC,OVC,0.00,WeatherDisplay:10.34,2013-09-22 08:39:00,
2013-09-22 04:44:00,64.8,61.8,29.73,SSE,166,3.0,3.0,90,0.00,OVC,OVC,0.00,WeatherDisplay:10.34,2013-09-22 08:44:00,
2013-09-22 04:49:00,64.6,61.6,29.73,West,279,4.0,6.0,90,0.00,OVC,OVC,0.00,WeatherDisplay:10.34,2013-09-22 08:49:00,
2013-09-22 04:54:00,64.6,61.6,29.73,SSW,212,4.0,5.0,90,0.00,OVC,OVC,0.00,WeatherDisplay:10.34,2013-09-22 08:54:00,
2013-09-22 04:59:00,64.8,62.1,29.73,South,189,7.0,12.0,91,0.00,OVC,OVC,0.00,WeatherDisplay:10.34,2013-09-22 08:59:00,
2013-09-22 05:04:00,64.6,62.2,29.73,WNW,283,4.0,9.0,92,0.00,BKN,BKN,0.00,WeatherDisplay:10.34,2013-09-22 09:04:00,
2013-09-22 05:09:00,64.6,62.5,29.73,WNW,285,4.0,9.0,93,0.00,BKN,BKN,0.00,WeatherDisplay:10.34,2013-09-22 09:09:00,
2013-09-22 05:14:00,64.4,62.3,29.73,SW,221,5.0,9.0,93,0.00,BKN,BKN,0.00,WeatherDisplay:10.34,2013-09-22 09:14:00,
2013-09-22 05:19:00,64.4,62.3,29.73,SW,225,7.0,10.0,93,0.00,BKN,BKN,0.00,WeatherDisplay:10.34,2013-09-22 09:19:00,
2013-09-22 05:24:00,64.2,62.5,29.73,NNE,13,4.0,10.0,94,0.00,BKN,BKN,0.00,WeatherDisplay:10.34,2013-09-22 09:24:00,
2013-09-22 05:29:00,64.2,62.5,29.73,South,171,4.0,12.0,94,0.00,BKN,BKN,0.00,WeatherDisplay:10.34,2013-09-22 09:29:00,
2013-09-22 05:34:00,64.2,62.5,29.73,WNW,300,4.0,10.0,94,0.00,BKN,BKN,0.00,WeatherDisplay:10.34,2013-09-22 09:34:00,
2013-09-22 05:39:00,64.0,62.3,29.73,WNW,294,4.0,7.0,94,0.00,BKN,BKN,0.00,WeatherDisplay:10.34,2013-09-22 09:39:00,
2013-09-22 05:44:00,64.0,62.6,29.73,NW,308,3.0,3.0,95,0.00,BKN,BKN,0.00,WeatherDisplay:10.34,2013-09-22 09:44:00,
2013-09-22 05:49:00,63.9,62.4,29.73,North,351,4.0,6.0,95,0.00,BKN,BKN,0.00,WeatherDisplay:10.34,2013-09-22 09:49:00,
2013-09-22 05:54:00,63.5,62.0,29.73,SW,233,3.0,9.0,95,0.00,BKN,BKN,0.00,WeatherDisplay:10.34,2013-09-22 09:54:00,
2013-09-22 05:59:00,62.8,60.7,29.73,WSW,253,6.0,9.0,93,0.00,BKN,BKN,0.00,WeatherDisplay:10.34,2013-09-22 09:59:00,
2013-09-22 06:04:00,62.6,60.2,29.73,WNW,290,6.0,10.0,92,0.00,OVC,OVC,0.00,WeatherDisplay:10.34,2013-09-22 10:04:00,
2013-09-22 06:09:00,62.4,60.1,29.73,West,270,4.0,6.0,92,0.00,OVC,OVC,0.00,WeatherDisplay:10.34,2013-09-22 10:09:00,
2013-09-22 06:14:00,62.2,59.9,29.73,NNW,328,4.0,6.0,92,0.00,OVC,OVC,0.00,WeatherDisplay:10.34,2013-09-22 10:14:00,
2013-09-22 06:19:00,61.9,59.5,29.73,West,275,4.0,7.0,92,0.00,OVC,OVC,0.00,WeatherDisplay:10.34,2013-09-22 10:19:00,
2013-09-22 06:24:00,61.9,59.5,29.73,North,351,3.0,3.0,92,0.00,OVC,OVC,0.00,WeatherDisplay:10.34,2013-09-22 10:24:00,
2013-09-22 06:29:00,61.7,59.4,29.73,WSW,239,0.0,5.0,92,0.00,OVC,OVC,0.00,WeatherDisplay:10.34,2013-09-22 10:29:00,
2013-09-22 06:34:00,61.7,59.4,29.73,NW,312,3.0,6.0,92,0.00,OVC,OVC,0.00,WeatherDisplay:10.34,2013-09-22 10:34:00,
2013-09-22 06:39:00,61.7,59.4,29.73,North,351,3.0,5.0,92,0.00,OVC,OVC,0.00,WeatherDisplay:10.34,2013-09-22 10:39:00,
2013-09-22 06:44:00,61.7,59.4,29.73,WSW,246,0.0,6.0,92,0.00,OVC,OVC,0.00,WeatherDisplay:10.34,2013-09-22 10:44:00,
2013-09-22 06:49:00,61.7,59.7,29.76,NW,319,3.0,7.0,93,0.00,OVC,OVC,0.00,WeatherDisplay:10.34,2013-09-22 10:49:00,
2013-09-22 06:54:00,61.7,59.7,29.76,West,269,3.0,6.0,93,0.00,OVC,OVC,0.00,WeatherDisplay:10.34,2013-09-22 10:54:00,
2013-09-22 06:59:00,61.5,59.5,29.76,South,173,4.0,6.0,93,0.00,OVC,OVC,0.00,WeatherDisplay:10.34,2013-09-22 10:59:00,
2013-09-22 07:04:00,61.3,59.3,29.76,SSE,162,4.0,6.0,93,0.00,OVC,OVC,0.00,WeatherDisplay:10.34,2013-09-22 11:04:00,
2013-09-22 07:09:00,61.2,59.1,29.76,WSW,251,4.0,5.0,93,0.00,OVC,OVC,0.00,WeatherDisplay:10.34,2013-09-22 11:09:00,
2013-09-22 07:14:00,61.0,58.9,29.77,WSW,237,5.0,8.0,93,0.00,OVC,OVC,0.00,WeatherDisplay:10.34,2013-09-22 11:14:00,
2013-09-22 07:19:00,60.8,58.5,29.77,NNW,329,3.0,5.0,92,0.00,OVC,OVC,0.00,WeatherDisplay:10.34,2013-09-22 11:19:00,
2013-09-22 07:24:00,60.6,58.3,29.77,SW,216,3.0,6.0,92,0.00,OVC,OVC,0.00,WeatherDisplay:10.34,2013-09-22 11:24:00,
2013-09-22 07:29:00,60.4,58.1,29.77,SSE,156,3.0,5.0,92,0.00,OVC,OVC,0.00,WeatherDisplay:10.34,2013-09-22 11:29:00,
2013-09-22 07:34:00,60.3,57.6,29.77,NNW,336,4.0,12.0,91,0.00,OVC,OVC,0.00,WeatherDisplay:10.34,2013-09-22 11:34:00,
2013-09-22 07:39:00,60.1,57.4,29.77,SW,227,4.0,6.0,91,0.00,OVC,OVC,0.00,WeatherDisplay:10.34,2013-09-22 11:39:00,
2013-09-22 07:44:00,59.9,57.3,29.77,WNW,298,3.0,5.0,91,0.00,OVC,OVC,0.00,WeatherDisplay:10.34,2013-09-22 11:44:00,
2013-09-22 07:49:00,59.7,57.1,29.77,North,1,4.0,4.0,91,0.00,OVC,OVC,0.00,WeatherDisplay:10.34,2013-09-22 11:49:00,
2013-09-22 07:54:00,59.7,57.4,29.77,NW,321,0.0,3.0,92,0.00,OVC,OVC,0.00,WeatherDisplay:10.34,2013-09-22 11:54:00,
2013-09-22 07:59:00,59.7,57.4,29.77,WSW,240,3.0,5.0,92,0.00,OVC,OVC,0.00,WeatherDisplay:10.34,2013-09-22 11:59:00,
2013-09-22 08:04:00,59.5,57.2,29.77,WSW,246,3.0,6.0,92,0.00,OVC,OVC,0.00,WeatherDisplay:10.34,2013-09-22 12:04:00,
2013-09-22 08:09:00,59.5,57.2,29.77,North,4,3.0,5.0,92,0.00,OVC,OVC,0.00,WeatherDisplay:10.34,2013-09-22 12:09:00,
2013-09-22 08:14:00,59.5,57.2,29.77,WSW,243,0.0,5.0,92,0.00,OVC,OVC,0.00,WeatherDisplay:10.34,2013-09-22 12:14:00,
2013-09-22 08:19:00,59.5,57.2,29.77,SSE,165,3.0,5.0,92,0.00,OVC,OVC,0.00,WeatherDisplay:10.34,2013-09-22 12:19:00,
2013-09-22 08:24:00,59.5,57.2,29.77,SSW,196,3.0,7.0,92,0.00,OVC,OVC,0.00,WeatherDisplay:10.34,2013-09-22 12:24:00,
2013-09-22 08:29:00,59.5,57.2,29.77,SW,236,3.0,3.0,92,0.00,OVC,OVC,0.00,WeatherDisplay:10.34,2013-09-22 12:29:00,
2013-09-22 08:34:00,59.5,57.2,29.77,WSW,239,3.0,6.0,92,0.00,OVC,OVC,0.00,WeatherDisplay:10.34,2013-09-22 12:34:00,
2013-09-22 08:39:00,59.5,57.5,29.77,SW,217,0.0,5.0,93,0.00,OVC,OVC,0.00,WeatherDisplay:10.34,2013-09-22 12:39:00,
2013-09-22 08:44:00,59.7,57.7,29.77,SW,234,4.0,7.0,93,0.00,OVC,OVC,0.00,WeatherDisplay:10.34,2013-09-22 12:44:00,
2013-09-22 08:49:00,59.7,57.7,29.77,South,169,3.0,5.0,93,0.00,OVC,OVC,0.00,WeatherDisplay:10.34,2013-09-22 12:49:00,
2013-09-22 08:54:00,59.7,57.7,29.77,WNW,301,5.0,9.0,93,0.00,OVC,OVC,0.00,WeatherDisplay:10.34,2013-09-22 12:54:00,
2013-09-22 08:59:00,59.7,57.7,29.77,WSW,237,4.0,7.0,93,0.00,OVC,OVC,0.00,WeatherDisplay:10.34,2013-09-22 12:59:00,
2013-09-22 09:04:00,59.7,57.7,29.77,West,270,3.0,9.0,93,0.00,OVC,OVC,0.00,WeatherDisplay:10.34,2013-09-22 13:04:00,
2013-09-22 09:09:00,59.7,57.7,29.77,WSW,242,4.0,7.0,93,0.00,OVC,OVC,0.00,WeatherDisplay:10.34,2013-09-22 13:09:00,
2013-09-22 09:14:00,59.9,57.9,29.77,WSW,252,3.0,6.0,93,0.00,OVC,OVC,0.00,WeatherDisplay:10.34,2013-09-22 13:14:00,
2013-09-22 09:19:00,60.1,57.7,29.77,SW,231,5.0,7.0,92,0.00,OVC,OVC,0.00,WeatherDisplay:10.34,2013-09-22 13:19:00,
2013-09-22 09:24:00,60.1,57.7,29.77,NNW,345,4.0,7.0,92,0.00,OVC,OVC,0.00,WeatherDisplay:10.34,2013-09-22 13:24:00,
2013-09-22 09:29:00,60.1,57.7,29.77,WSW,249,4.0,7.0,92,0.00,OVC,OVC,0.00,WeatherDisplay:10.34,2013-09-22 13:29:00,
2013-09-22 09:34:00,60.1,57.7,29.77,North,351,0.0,7.0,92,0.00,OVC,OVC,0.00,WeatherDisplay:10.34,2013-09-22 13:34:00,
2013-09-22 09:39:00,60.1,57.7,29.77,NW,306,4.0,6.0,92,0.00,OVC,OVC,0.00,WeatherDisplay:10.34,2013-09-22 13:39:00,
2013-09-22 09:44:00,60.3,57.9,29.77,NW,305,3.0,3.0,92,0.00,OVC,OVC,0.00,WeatherDisplay:10.34,2013-09-22 13:44:00,
2013-09-22 09:49:00,60.4,57.8,29.77,WSW,240,4.0,6.0,91,0.00,OVC,OVC,0.00,WeatherDisplay:10.34,2013-09-22 13:49:00,
2013-09-22 09:54:00,60.4,57.8,29.77,West,264,4.0,8.0,91,0.00,OVC,OVC,0.00,WeatherDisplay:10.34,2013-09-22 13:54:00,
2013-09-22 09:59:00,60.4,57.5,29.80,WSW,244,3.0,8.0,90,0.00,OVC,OVC,0.00,WeatherDisplay:10.34,2013-09-22 13:59:00,
2013-09-22 10:04:00,60.6,57.7,29.80,SSW,208,4.0,6.0,90,0.00,SCT,SCT,0.00,WeatherDisplay:10.34,2013-09-22 14:04:00,
2013-09-22 10:09:00,60.4,57.5,29.80,NNE,17,4.0,7.0,90,0.00,SCT,SCT,0.00,WeatherDisplay:10.34,2013-09-22 14:09:00,
2013-09-22 10:14:00,60.6,57.4,29.80,NE,48,4.0,8.0,89,0.00,SCT,SCT,0.00,WeatherDisplay:10.34,2013-09-22 14:14:00,
2013-09-22 10:19:00,60.8,57.5,29.80,West,268,4.0,6.0,89,0.00,SCT,SCT,0.00,WeatherDisplay:10.34,2013-09-22 14:19:00,
2013-09-22 10:24:00,60.8,57.5,29.80,West,262,3.0,5.0,89,0.00,SCT,SCT,0.00,WeatherDisplay:10.34,2013-09-22 14:24:00,
2013-09-22 10:29:00,61.0,57.7,29.80,North,5,6.0,8.0,89,0.00,SCT,SCT,0.00,WeatherDisplay:10.34,2013-09-22 14:29:00,
2013-09-22 10:34:00,61.2,56.3,29.80,NNE,16,4.0,9.0,84,0.00,SCT,SCT,0.00,WeatherDisplay:10.34,2013-09-22 14:34:00,
2013-09-22 10:39:00,61.5,56.0,29.80,NW,318,4.0,8.0,82,0.00,SCT,SCT,0.00,WeatherDisplay:10.34,2013-09-22 14:39:00,
2013-09-22 10:44:00,61.9,55.3,29.80,SSW,204,5.0,9.0,79,0.00,SCT,SCT,0.00,WeatherDisplay:10.34,2013-09-22 14:44:00,
2013-09-22 10:49:00,61.9,54.9,29.80,ESE,115,4.0,4.0,78,0.00,SCT,SCT,0.00,WeatherDisplay:10.34,2013-09-22 14:49:00,
2013-09-22 10:54:00,61.7,54.4,29.80,South,172,5.0,7.0,77,0.00,SCT,SCT,0.00,WeatherDisplay:10.34,2013-09-22 14:54:00,
2013-09-22 10:59:00,61.9,54.9,29.80,West,267,3.0,6.0,78,0.00,SCT,SCT,0.00,WeatherDisplay:10.34,2013-09-22 14:59:00,
2013-09-22 11:04:00,62.1,54.8,29.80,WSW,238,3.0,7.0,77,0.00,OVC,OVC,0.00,WeatherDisplay:10.34,2013-09-22 15:04:00,
2013-09-22 11:09:00,62.6,54.2,29.80,SSE,151,4.0,7.0,74,0.00,OVC,OVC,0.00,WeatherDisplay:10.34,2013-09-22 15:09:00,
2013-09-22 11:14:00,62.8,54.4,29.77,SW,233,0.0,3.0,74,0.00,OVC,OVC,0.00,WeatherDisplay:10.34,2013-09-22 15:14:00,
2013-09-22 11:19:00,63.0,54.5,29.76,WSW,246,0.0,10.0,74,0.00,OVC,OVC,0.00,WeatherDisplay:10.34,2013-09-22 15:19:00,
2013-09-22 11:24:00,63.0,53.0,29.76,South,179,4.0,6.0,70,0.00,OVC,OVC,0.00,WeatherDisplay:10.34,2013-09-22 15:24:00,
2013-09-22 11:30:00,63.0,53.0,29.76,NNW,332,3.0,7.0,70,0.00,OVC,OVC,0.00,WeatherDisplay:10.34,2013-09-22 15:30:00,
2013-09-22 11:35:00,62.8,52.5,29.77,NNW,347,3.0,5.0,69,0.00,OVC,OVC,0.00,WeatherDisplay:10.34,2013-09-22 15:35:00,
2013-09-22 11:41:00,62.6,51.9,29.77,SSE,148,3.0,5.0,68,0.00,OVC,OVC,0.00,WeatherDisplay:10.34,2013-09-22 15:41:00,
2013-09-22 11:46:00,62.4,51.7,29.77,South,173,3.0,9.0,68,0.00,OVC,OVC,0.00,WeatherDisplay:10.34,2013-09-22 15:46:00,
2013-09-22 11:51:00,62.6,51.5,29.77,NE,42,0.0,5.0,67,0.00,OVC,OVC,0.00,WeatherDisplay:10.34,2013-09-22 15:51:00,
2013-09-22 11:56:00,62.4,50.9,29.77,WSW,249,3.0,7.0,66,0.00,OVC,OVC,0.00,WeatherDisplay:10.34,2013-09-22 15:56:00,
2013-09-22 12:01:00,62.1,49.3,29.80,NNE,31,4.0,8.0,63,0.00,OVC,OVC,0.00,WeatherDisplay:10.34,2013-09-22 16:01:00,
2013-09-22 12:06:00,61.5,48.8,29.80,North,351,3.0,7.0,63,0.00,SCT,SCT,0.00,WeatherDisplay:10.34,2013-09-22 16:06:00,
2013-09-22 12:11:00,61.3,48.6,29.80,SSW,210,0.0,7.0,63,0.00,SCT,SCT,0.00,WeatherDisplay:10.34,2013-09-22 16:11:00,
2013-09-22 12:16:00,61.5,47.9,29.80,ENE,68,4.0,7.0,61,0.00,SCT,SCT,0.00,WeatherDisplay:10.34,2013-09-22 16:16:00,
2013-09-22 12:21:00,61.9,48.7,29.80,WSW,242,4.0,7.0,62,0.00,SCT,SCT,0.00,WeatherDisplay:10.34,2013-09-22 16:21:00,
2013-09-22 12:26:00,62.4,46.5,29.80,North,6,6.0,9.0,56,0.00,SCT,SCT,0.00,WeatherDisplay:10.34,2013-09-22 16:26:00,
2013-09-22 12:31:00,62.8,46.4,29.80,SW,221,6.0,6.0,55,0.00,SCT,SCT,0.00,WeatherDisplay:10.34,2013-09-22 16:31:00,
2013-09-22 12:36:00,63.1,45.7,29.80,West,276,5.0,9.0,53,0.00,SCT,SCT,0.00,WeatherDisplay:10.34,2013-09-22 16:36:00,
2013-09-22 12:41:00,63.0,43.5,29.80,North,351,5.0,6.0,49,0.00,SCT,SCT,0.00,WeatherDisplay:10.34,2013-09-22 16:41:00,
2013-09-22 12:46:00,63.1,42.6,29.80,NNW,331,6.0,9.0,47,0.00,SCT,SCT,0.00,WeatherDisplay:10.34,2013-09-22 16:46:00,
2013-09-22 12:51:00,63.3,42.7,29.80,NNW,332,4.0,8.0,47,0.00,SCT,SCT,0.00,WeatherDisplay:10.34,2013-09-22 16:51:00,
2013-09-22 12:56:00,63.3,41.0,29.80,SSW,200,6.0,10.0,44,0.00,SCT,SCT,0.00,WeatherDisplay:10.34,2013-09-22 16:56:00,
2013-09-22 13:01:00,63.7,42.5,29.80,ESE,108,3.0,5.0,46,0.00,SCT,SCT,0.00,WeatherDisplay:10.34,2013-09-22 17:01:00,
2013-09-22 13:06:00,63.9,42.7,29.80,North,9,5.0,10.0,46,0.00,BKN,BKN,0.00,WeatherDisplay:10.34,2013-09-22 17:06:00,
2013-09-22 13:11:00,63.7,41.3,29.80,NNE,28,5.0,8.0,44,0.00,BKN,BKN,0.00,WeatherDisplay:10.34,2013-09-22 17:11:00,
2013-09-22 13:16:00,63.7,40.1,29.80,West,280,5.0,9.0,42,0.00,BKN,BKN,0.00,WeatherDisplay:10.34,2013-09-22 17:16:00,
2013-09-22 13:21:00,63.9,39.7,29.80,North,8,9.0,13.0,41,0.00,BKN,BKN,0.00,WeatherDisplay:10.34,2013-09-22 17:21:00,
2013-09-22 13:26:00,63.9,41.5,29.80,NNE,24,6.0,12.0,44,0.00,BKN,BKN,0.00,WeatherDisplay:10.34,2013-09-22 17:26:00,
2013-09-22 13:31:00,64.0,41.7,29.80,NNE,20,4.0,7.0,44,0.00,BKN,BKN,0.00,WeatherDisplay:10.34,2013-09-22 17:31:00,
2013-09-22 13:36:00,64.2,41.2,29.80,NNE,18,6.0,12.0,43,0.00,BKN,BKN,0.00,WeatherDisplay:10.34,2013-09-22 17:36:00,
2013-09-22 13:41:00,64.4,41.4,29.79,NNE,30,4.0,5.0,43,0.00,BKN,BKN,0.00,WeatherDisplay:10.34,2013-09-22 17:41:00,
2013-09-22 13:46:00,64.4,40.2,29.79,NNE,22,6.0,9.0,41,0.00,BKN,BKN,0.00,WeatherDisplay:10.34,2013-09-22 17:46:00,
2013-09-22 13:51:00,64.4,40.2,29.79,NNE,16,6.0,8.0,41,0.00,BKN,BKN,0.00,WeatherDisplay:10.34,2013-09-22 17:51:00,
2013-09-22 13:56:00,64.4,38.9,29.79,West,277,5.0,8.0,39,0.00,BKN,BKN,0.00,WeatherDisplay:10.34,2013-09-22 17:56:00,
2013-09-22 14:01:00,64.6,39.7,29.76,NNW,346,5.0,7.0,40,0.00,BKN,BKN,0.00,WeatherDisplay:10.34,2013-09-22 18:01:00,
2013-09-22 14:06:00,64.4,38.9,29.76,NE,37,5.0,9.0,39,0.00,SCT,SCT,0.00,WeatherDisplay:10.34,2013-09-22 18:06:00,
2013-09-22 14:11:00,63.7,40.1,29.76,East,97,4.0,8.0,42,0.00,SCT,SCT,0.00,WeatherDisplay:10.34,2013-09-22 18:11:00,
2013-09-22 14:16:00,63.1,39.7,29.80,SW,220,4.0,7.0,42,0.00,SCT,SCT,0.00,WeatherDisplay:10.34,2013-09-22 18:16:00,
2013-09-22 14:21:00,63.5,40.6,29.80,SSW,211,4.0,7.0,43,0.00,SCT,SCT,0.00,WeatherDisplay:10.34,2013-09-22 18:21:00,
2013-09-22 14:26:00,63.9,39.7,29.80,WSW,239,6.0,12.0,41,0.00,SCT,SCT,0.00,WeatherDisplay:10.34,2013-09-22 18:26:00,
2013-09-22 14:31:00,64.0,38.6,29.80,SSW,212,8.0,12.0,39,0.00,SCT,SCT,0.00,WeatherDisplay:10.34,2013-09-22 18:31:00,
2013-09-22 14:36:00,64.0,38.6,29.80,WSW,240,3.0,7.0,39,0.00,SCT,SCT,0.00,WeatherDisplay:10.34,2013-09-22 18:36:00,
2013-09-22 14:41:00,64.0,37.9,29.80,NE,46,6.0,9.0,38,0.00,SCT,SCT,0.00,WeatherDisplay:10.34,2013-09-22 18:41:00,
2013-09-22 14:46:00,63.9,37.7,29.80,SW,216,5.0,9.0,38,0.00,SCT,SCT,0.00,WeatherDisplay:10.34,2013-09-22 18:46:00,
2013-09-22 14:51:00,63.7,38.2,29.80,NE,46,3.0,6.0,39,0.00,SCT,SCT,0.00,WeatherDisplay:10.34,2013-09-22 18:51:00,
2013-09-22 14:56:00,63.7,39.5,29.80,WSW,240,5.0,9.0,41,0.00,SCT,SCT,0.00,WeatherDisplay:10.34,2013-09-22 18:56:00,
2013-09-22 15:01:00,63.7,40.1,29.80,NE,34,4.0,6.0,42,0.00,SCT,SCT,0.00,WeatherDisplay:10.34,2013-09-22 19:01:00,
2013-09-22 15:06:00,63.7,40.8,29.80,SSW,199,4.0,15.0,43,0.00,BKN,BKN,0.00,WeatherDisplay:10.34,2013-09-22 19:06:00,
2013-09-22 15:11:00,63.5,40.0,29.80,ESE,115,7.0,12.0,42,0.00,BKN,BKN,0.00,WeatherDisplay:10.34,2013-09-22 19:11:00,
2013-09-22 15:16:00,63.7,40.8,29.80,SW,222,4.0,6.0,43,0.00,BKN,BKN,0.00,WeatherDisplay:10.34,2013-09-22 19:16:00,
2013-09-22 15:21:00,63.7,41.3,29.80,SW,236,7.0,12.0,44,0.00,BKN,BKN,0.00,WeatherDisplay:10.34,2013-09-22 19:21:00,
2013-09-22 15:26:00,63.5,40.6,29.80,NNE,27,6.0,6.0,43,0.00,BKN,BKN,0.00,WeatherDisplay:10.34,2013-09-22 19:26:00,
2013-09-22 15:31:00,63.7,41.3,29.80,NW,307,3.0,3.0,44,0.00,BKN,BKN,0.00,WeatherDisplay:10.34,2013-09-22 19:31:00,
2013-09-22 15:36:00,63.7,41.3,29.80,North,6,4.0,8.0,44,0.00,BKN,BKN,0.00,WeatherDisplay:10.34,2013-09-22 19:36:00,
2013-09-22 15:41:00,63.3,41.0,29.80,WSW,249,4.0,9.0,44,0.00,BKN,BKN,0.00,WeatherDisplay:10.34,2013-09-22 19:41:00,
2013-09-22 15:46:00,63.0,40.7,29.80,WSW,242,3.0,3.0,44,0.00,BKN,BKN,0.00,WeatherDisplay:10.34,2013-09-22 19:46:00,
2013-09-22 15:52:00,63.0,40.7,29.80,WSW,241,5.0,9.0,44,0.00,BKN,BKN,0.00,WeatherDisplay:10.34,2013-09-22 19:52:00,
2013-09-22 15:57:00,63.0,40.7,29.80,North,0,6.0,7.0,44,0.00,BKN,BKN,0.00,WeatherDisplay:10.34,2013-09-22 19:57:00,
2013-09-22 16:02:00,62.6,40.4,29.80,WNW,299,4.0,6.0,44,0.00,BKN,BKN,0.00,WeatherDisplay:10.34,2013-09-22 20:02:00,
2013-09-22 16:07:00,62.2,40.6,29.80,SW,221,4.0,6.0,45,0.00,SCT,SCT,0.00,WeatherDisplay:10.34,2013-09-22 20:07:00,
2013-09-22 16:12:00,62.2,41.2,29.80,West,275,5.0,7.0,46,0.00,SCT,SCT,0.00,WeatherDisplay:10.34,2013-09-22 20:12:00,
2013-09-22 16:17:00,62.4,41.4,29.80,SW,214,4.0,5.0,46,0.00,SCT,SCT,0.00,WeatherDisplay:10.34,2013-09-22 20:17:00,
2013-09-22 16:22:00,62.4,40.8,29.80,North,351,5.0,9.0,45,0.00,SCT,SCT,0.00,WeatherDisplay:10.34,2013-09-22 20:22:00,
2013-09-22 16:27:00,62.4,41.4,29.80,North,6,4.0,6.0,46,0.00,SCT,SCT,0.00,WeatherDisplay:10.34,2013-09-22 20:27:00,
2013-09-22 16:32:00,62.2,40.6,29.80,NNE,22,4.0,5.0,45,0.00,SCT,SCT,0.00,WeatherDisplay:10.34,2013-09-22 20:32:00,
2013-09-22 16:37:00,61.9,41.4,29.80,WSW,240,4.0,6.0,47,0.00,SCT,SCT,0.00,WeatherDisplay:10.34,2013-09-22 20:37:00,
2013-09-22 16:42:00,61.9,42.0,29.80,NE,42,3.0,6.0,48,0.00,SCT,SCT,0.00,WeatherDisplay:10.34,2013-09-22 20:42:00,
2013-09-22 16:47:00,61.7,41.8,29.80,WSW,250,3.0,6.0,48,0.00,SCT,SCT,0.00,WeatherDisplay:10.34,2013-09-22 20:47:00,
2013-09-22 16:52:00,61.3,41.5,29.80,South,174,4.0,7.0,48,0.00,SCT,SCT,0.00,WeatherDisplay:10.34,2013-09-22 20:52:00,
2013-09-22 16:57:00,61.2,41.3,29.80,North,3,5.0,7.0,48,0.00,SCT,SCT,0.00,WeatherDisplay:10.34,2013-09-22 20:57:00,
2013-09-22 17:02:00,61.0,41.1,29.83,West,259,4.0,6.0,48,0.00,SCT,SCT,0.00,WeatherDisplay:10.34,2013-09-22 21:02:00,
2013-09-22 17:07:00,60.8,42.0,29.83,NNE,33,3.0,6.0,50,0.00,OVC,OVC,0.00,WeatherDisplay:10.34,2013-09-22 21:07:00,
2013-09-22 17:12:00,60.6,41.9,29.83,NE,55,3.0,6.0,50,0.00,OVC,OVC,0.00,WeatherDisplay:10.34,2013-09-22 21:12:00,
2013-09-22 17:17:00,60.4,42.2,29.83,NNE,28,5.0,9.0,51,0.00,OVC,OVC,0.00,WeatherDisplay:10.34,2013-09-22 21:17:00,
2013-09-22 17:22:00,60.3,42.0,29.83,West,270,4.0,7.0,51,0.00,OVC,OVC,0.00,WeatherDisplay:10.34,2013-09-22 21:22:00,
2013-09-22 17:27:00,60.1,42.9,29.83,SW,232,4.0,6.0,53,0.00,OVC,OVC,0.00,WeatherDisplay:10.34,2013-09-22 21:27:00,
2013-09-22 17:32:00,59.9,42.7,29.83,North,3,0.0,6.0,53,0.00,OVC,OVC,0.00,WeatherDisplay:10.34,2013-09-22 21:32:00,
2013-09-22 17:38:00,59.5,42.9,29.83,SW,234,4.0,7.0,54,0.00,OVC,OVC,0.00,WeatherDisplay:10.34,2013-09-22 21:38:00,
2013-09-22 17:43:00,59.4,42.7,29.83,SW,218,3.0,5.0,54,0.00,OVC,OVC,0.00,WeatherDisplay:10.34,2013-09-22 21:43:00,
2013-09-22 17:48:00,59.4,42.7,29.83,WSW,257,4.0,7.0,54,0.00,OVC,OVC,0.00,WeatherDisplay:10.34,2013-09-22 21:48:00,
2013-09-22 17:53:00,59.0,42.4,29.83,WSW,254,5.0,10.0,54,0.00,OVC,OVC,0.00,WeatherDisplay:10.34,2013-09-22 21:53:00,
2013-09-22 17:58:00,58.8,41.7,29.83,North,351,4.0,5.0,53,0.00,OVC,OVC,0.00,WeatherDisplay:10.34,2013-09-22 21:58:00,
2013-09-22 18:03:00,58.5,40.9,29.86,WSW,244,3.0,5.0,52,0.00,OVC,OVC,0.00,WeatherDisplay:10.34,2013-09-22 22:03:00,
2013-09-22 18:08:00,58.3,40.7,29.86,SW,219,0.0,5.0,52,0.00,SCT,SCT,0.00,WeatherDisplay:10.34,2013-09-22 22:08:00,
2013-09-22 18:13:00,58.1,40.1,29.87,NE,39,3.0,6.0,51,0.00,SCT,SCT,0.00,WeatherDisplay:10.34,2013-09-22 22:13:00,
2013-09-22 18:18:00,57.7,39.7,29.87,NNE,12,5.0,6.0,51,0.00,SCT,SCT,0.00,WeatherDisplay:10.34,2013-09-22 22:18:00,
2013-09-22 18:23:00,57.4,39.4,29.87,West,271,4.0,7.0,51,0.00,SCT,SCT,0.00,WeatherDisplay:10.34,2013-09-22 22:23:00,
2013-09-22 18:28:00,57.0,38.0,29.87,SW,220,4.0,7.0,49,0.00,SCT,SCT,0.00,WeatherDisplay:10.34,2013-09-22 22:28:00,
2013-09-22 18:33:00,56.8,38.4,29.87,WSW,241,0.0,3.0,50,0.00,SCT,SCT,0.00,WeatherDisplay:10.34,2013-09-22 22:33:00,
2013-09-22 18:38:00,56.7,38.7,29.87,NNE,14,5.0,8.0,51,0.00,SCT,SCT,0.00,WeatherDisplay:10.34,2013-09-22 22:38:00,
2013-09-22 18:43:00,56.5,38.1,29.87,North,10,0.0,0.0,50,0.00,SCT,SCT,0.00,WeatherDisplay:10.34,2013-09-22 22:43:00,
2013-09-22 18:48:00,56.3,38.4,29.87,North,351,0.0,2.0,51,0.00,SCT,SCT,0.00,WeatherDisplay:10.34,2013-09-22 22:48:00,
2013-09-22 18:53:00,55.9,38.6,29.87,North,1,3.0,5.0,52,0.00,SCT,SCT,0.00,WeatherDisplay:10.34,2013-09-22 22:53:00,
2013-09-22 18:58:00,55.9,38.6,29.87,North,8,0.0,2.0,52,0.00,SCT,SCT,0.00,WeatherDisplay:10.34,2013-09-22 22:58:00,
2013-09-22 19:03:00,55.8,38.4,29.87,NNW,328,0.0,3.0,52,0.00,SCT,SCT,0.00,WeatherDisplay:10.34,2013-09-22 23:03:00,
2013-09-22 19:08:00,55.4,38.5,29.87,North,0,0.0,3.0,53,0.00,BKN,BKN,0.00,WeatherDisplay:10.34,2013-09-22 23:08:00,
2013-09-22 19:13:00,55.4,38.5,29.87,NNE,24,3.0,5.0,53,0.00,BKN,BKN,0.00,WeatherDisplay:10.34,2013-09-22 23:13:00,
2013-09-22 19:18:00,55.2,37.9,29.90,NW,312,3.0,0.0,52,0.00,BKN,BKN,0.00,WeatherDisplay:10.34,2013-09-22 23:18:00,
2013-09-22 19:23:00,55.0,37.7,29.90,North,7,0.0,0.0,52,0.00,BKN,BKN,0.00,WeatherDisplay:10.34,2013-09-22 23:23:00,
2013-09-22 19:28:00,54.9,38.5,29.90,NE,47,0.0,0.0,54,0.00,BKN,BKN,0.00,WeatherDisplay:10.34,2013-09-22 23:28:00,
2013-09-22 19:33:00,54.5,37.7,29.90,North,2,0.0,0.0,53,0.00,BKN,BKN,0.00,WeatherDisplay:10.34,2013-09-22 23:33:00,
2013-09-22 19:38:00,54.5,37.2,29.90,North,351,0.0,9.0,52,0.00,BKN,BKN,0.00,WeatherDisplay:10.34,2013-09-22 23:38:00,
2013-09-22 19:43:00,54.3,37.1,29.90,North,0,0.0,3.0,52,0.00,BKN,BKN,0.00,WeatherDisplay:10.34,2013-09-22 23:43:00,
2013-09-22 19:48:00,54.3,37.1,29.90,North,351,3.0,5.0,52,0.00,BKN,BKN,0.00,WeatherDisplay:10.34,2013-09-22 23:48:00,
2013-09-22 19:53:00,54.3,37.5,29.90,North,351,0.0,0.0,53,0.00,BKN,BKN,0.00,WeatherDisplay:10.34,2013-09-22 23:53:00,
2013-09-22 19:58:00,54.1,37.8,29.90,NNW,332,0.0,3.0,54,0.00,BKN,BKN,0.00,WeatherDisplay:10.34,2013-09-22 23:58:00,
2013-09-22 20:03:00,54.0,38.6,29.91,NNW,332,0.0,0.0,56,0.00,BKN,BKN,0.00,WeatherDisplay:10.34,2013-09-23 00:03:00,
2013-09-22 20:08:00,53.8,38.4,29.91,NNW,331,0.0,0.0,56,0.00,BKN,BKN,0.00,WeatherDisplay:10.34,2013-09-23 00:08:00,
2013-09-22 20:13:00,53.4,38.6,29.91,NNE,16,0.0,0.0,57,0.00,BKN,BKN,0.00,WeatherDisplay:10.34,2013-09-23 00:13:00,
2013-09-22 20:18:00,53.2,38.4,29.91,SW,218,0.0,3.0,57,0.00,BKN,BKN,0.00,WeatherDisplay:10.34,2013-09-23 00:18:00,
2013-09-22 20:23:00,53.1,38.7,29.91,NW,310,0.0,0.0,58,0.00,BKN,BKN,0.00,WeatherDisplay:10.34,2013-09-23 00:23:00,
2013-09-22 20:28:00,53.1,37.8,29.91,West,260,0.0,2.0,56,0.00,BKN,BKN,0.00,WeatherDisplay:10.34,2013-09-23 00:28:00,
2013-09-22 20:33:00,52.9,38.1,29.94,WSW,245,0.0,2.0,57,0.00,BKN,BKN,0.00,WeatherDisplay:10.34,2013-09-23 00:33:00,
2013-09-22 20:38:00,52.9,38.1,29.94,WSW,246,0.0,0.0,57,0.00,BKN,BKN,0.00,WeatherDisplay:10.34,2013-09-23 00:38:00,
2013-09-22 20:43:00,52.9,38.5,29.94,NE,38,0.0,0.0,58,0.00,BKN,BKN,0.00,WeatherDisplay:10.34,2013-09-23 00:43:00,
2013-09-22 20:48:00,52.9,38.1,29.94,NE,39,0.0,0.0,57,0.00,BKN,BKN,0.00,WeatherDisplay:10.34,2013-09-23 00:48:00,
2013-09-22 20:53:00,52.9,38.1,29.94,NE,38,0.0,0.0,57,0.00,BKN,BKN,0.00,WeatherDisplay:10.34,2013-09-23 00:53:00,
2013-09-22 20:58:00,52.5,38.2,29.94,WNW,294,4.0,5.0,58,0.00,BKN,BKN,0.00,WeatherDisplay:10.34,2013-09-23 00:58:00,
2013-09-22 21:03:00,52.5,37.7,29.94,WNW,284,0.0,0.0,57,0.00,BKN,BKN,0.00,WeatherDisplay:10.34,2013-09-23 01:03:00,
2013-09-22 21:08:00,52.3,37.5,29.94,West,278,0.0,2.0,57,0.00,BKN,BKN,0.00,WeatherDisplay:10.34,2013-09-23 01:08:00,
2013-09-22 21:13:00,52.2,37.8,29.94,SW,222,0.0,3.0,58,0.00,BKN,BKN,0.00,WeatherDisplay:10.34,2013-09-23 01:13:00,
2013-09-22 21:18:00,52.2,36.9,29.94,SW,222,0.0,0.0,56,0.00,BKN,BKN,0.00,WeatherDisplay:10.34,2013-09-23 01:18:00,
2013-09-22 21:23:00,52.2,36.9,29.94,North,8,0.0,3.0,56,0.00,BKN,BKN,0.00,WeatherDisplay:10.34,2013-09-23 01:23:00,
2013-09-22 21:28:00,51.8,35.7,29.94,North,5,0.0,2.0,54,0.00,BKN,BKN,0.00,WeatherDisplay:10.34,2013-09-23 01:28:00,
2013-09-22 21:33:00,52.0,36.3,29.94,WSW,254,0.0,3.0,55,0.00,BKN,BKN,0.00,WeatherDisplay:10.34,2013-09-23 01:33:00,
2013-09-22 21:39:00,51.6,35.0,29.94,North,0,3.0,3.0,53,0.00,BKN,BKN,0.00,WeatherDisplay:10.34,2013-09-23 01:39:00,
2013-09-22 21:44:00,51.6,35.5,29.94,NNW,346,0.0,0.0,54,0.00,BKN,BKN,0.00,WeatherDisplay:10.34,2013-09-23 01:44:00,
2013-09-22 21:49:00,51.4,35.3,29.94,NNW,346,0.0,0.0,54,0.00,BKN,BKN,0.00,WeatherDisplay:10.34,2013-09-23 01:49:00,
2013-09-22 21:54:00,51.4,35.8,29.94,NNW,346,0.0,0.0,55,0.00,BKN,BKN,0.00,WeatherDisplay:10.34,2013-09-23 01:54:00,
2013-09-22 21:59:00,51.3,35.6,29.94,NNW,346,0.0,0.0,55,0.00,BKN,BKN,0.00,WeatherDisplay:10.34,2013-09-23 01:59:00,
2013-09-22 22:04:00,51.1,35.9,29.94,NNW,346,0.0,0.0,56,0.00,BKN,BKN,0.00,WeatherDisplay:10.34,2013-09-23 02:04:00,
2013-09-22 22:09:00,50.7,36.0,29.94,NNW,346,0.0,0.0,57,0.00,CLR,CLR,0.00,WeatherDisplay:10.34,2013-09-23 02:09:00,
2013-09-22 22:14:00,50.7,36.0,29.94,NNW,346,0.0,0.0,57,0.00,CLR,CLR,0.00,WeatherDisplay:10.34,2013-09-23 02:14:00,
2013-09-22 22:19:00,50.7,36.5,29.94,NNW,346,0.0,0.0,58,0.00,CLR,CLR,0.00,WeatherDisplay:10.34,2013-09-23 02:19:00,
2013-09-22 22:24:00,50.2,36.4,29.94,NNW,346,0.0,0.0,59,0.00,CLR,CLR,0.00,WeatherDisplay:10.34,2013-09-23 02:24:00,
2013-09-22 22:29:00,50.0,36.7,29.94,NNW,346,0.0,0.0,60,0.00,CLR,CLR,0.00,WeatherDisplay:10.34,2013-09-23 02:29:00,
2013-09-22 22:34:00,49.8,36.9,29.97,NNW,346,0.0,0.0,61,0.00,CLR,CLR,0.00,WeatherDisplay:10.34,2013-09-23 02:34:00,
2013-09-22 22:39:00,49.6,37.1,29.97,NNW,346,0.0,0.0,62,0.00,CLR,CLR,0.00,WeatherDisplay:10.34,2013-09-23 02:39:00,
2013-09-22 22:44:00,49.6,37.1,29.97,NW,306,0.0,3.0,62,0.00,CLR,CLR,0.00,WeatherDisplay:10.34,2013-09-23 02:44:00,
2013-09-22 22:49:00,49.6,37.6,29.97,NW,306,0.0,3.0,63,0.00,CLR,CLR,0.00,WeatherDisplay:10.34,2013-09-23 02:49:00,
2013-09-22 22:54:00,49.6,36.7,29.97,NW,306,0.0,0.0,61,0.00,CLR,CLR,0.00,WeatherDisplay:10.34,2013-09-23 02:54:00,
2013-09-22 22:59:00,49.3,36.4,29.97,West,270,0.0,2.0,61,0.00,CLR,CLR,0.00,WeatherDisplay:10.34,2013-09-23 02:59:00,
2013-09-22 23:04:00,49.3,36.8,29.97,West,270,0.0,3.0,62,0.00,CLR,CLR,0.00,WeatherDisplay:10.34,2013-09-23 03:04:00,
2013-09-22 23:09:00,49.3,36.8,29.97,West,270,0.0,3.0,62,0.00,CLR,CLR,0.00,WeatherDisplay:10.34,2013-09-23 03:09:00,
2013-09-22 23:14:00,49.1,37.0,29.97,North,1,0.0,3.0,63,0.00,CLR,CLR,0.00,WeatherDisplay:10.34,2013-09-23 03:14:00,
2013-09-22 23:19:00,48.7,36.3,29.97,WSW,258,0.0,7.0,62,0.00,CLR,CLR,0.00,WeatherDisplay:10.34,2013-09-23 03:19:00,
2013-09-22 23:24:00,48.6,35.7,29.97,North,1,4.0,7.0,61,0.00,CLR,CLR,0.00,WeatherDisplay:10.34,2013-09-23 03:24:00,
2013-09-22 23:29:00,48.7,35.9,29.97,NNW,332,0.0,7.0,61,0.00,CLR,CLR,0.00,WeatherDisplay:10.34,2013-09-23 03:29:00,
2013-09-22 23:34:00,48.7,35.9,29.94,North,6,3.0,3.0,61,0.00,CLR,CLR,0.00,WeatherDisplay:10.34,2013-09-23 03:34:00,
2013-09-22 23:40:00,48.9,36.1,29.94,West,275,0.0,3.0,61,0.00,CLR,CLR,0.00,WeatherDisplay:10.34,2013-09-23 03:40:00,
2013-09-22 23:45:00,48.7,35.5,29.97,North,3,3.0,3.0,60,0.00,CLR,CLR,0.00,WeatherDisplay:10.34,2013-09-23 03:45:00,
2013-09-22 23:50:00,48.7,35.5,29.97,North,0,0.0,0.0,60,0.00,CLR,CLR,0.00,WeatherDisplay:10.34,2013-09-23 03:50:00,
2013-09-22 23:55:00,48.7,35.5,29.97,WNW,287,3.0,5.0,60,0.00,CLR,CLR,0.00,WeatherDisplay:10.34,2013-09-23 03:55:00,